User: anonymous   Login
Location: Unspecified
(0.0000°N, 0.0000°E)
Time: 22:31:29
(UTC+00:00)
Language:

LES 1 - Orbit

View from above orbital plane
View from above orbital plane
View from above satellite
View from above satellite

Ground track
Ground track

The orbit data is extracted from the following two-line orbital elements,

1  1002U 65008C   18174.91119654 -.00000002 +00000-0 -13153-2 0  9998
2  1002 032.1432 110.8891 0015589 175.1887 184.8761 09.88352976927755
Epoch (UTC): 23 June 2018 21:52:07
Eccentricity: 0.0015589
inclination: 32.1432°
perigee height: 2779 km
apogee height: 2808 km
right ascension of ascending node: 110.8891°
argument of perigee: 175.1887°
revolutions per day: 9.88352976
mean anomaly at epoch: 184.8761°
orbit number at epoch: 92775

The dashed part of the orbit path shows where the satellite is in the earth's shadow,  

DLR